Chūbu Centrair International Airport

Airport
ICAO code: 
RJGG
IATA Code: 
NGO
Summary
ICAO Region: 
APAC
Territory: 
Location: 
Ise Bay, Aichi Prefecture
Serving: 
Nagoya
Elevation: 
12 ft
Coordinates: 
Aerial View: 
34° 51' 32.245" N, 136° 48' 52.326" E
Metar
Observation
RJGG 161030Z 29018KT 9999 FEW030 10/03 Q1017 NOSIG
Station
Nagoya Airport
Date/Time
2022-01-16 10:30:00
Wind direction
290°
Wind speed
18 kts
Lowest cloud amount
few clouds
Temperature
10°C
Dew point
3°C
Humidity
61%
QNH
1017 hPa
Weather condition
n/a

Chūbu Centrair International Airport is an airport on an artificial island in Ise Bay, Tokoname City in Aichi Prefecture, 35 km south of Nagoya in central Japan.

Climatology

Humid “subtropical” climate (Köppen climate classification Cfa) - characterized by hot, humid summers and cool winters. Significant amounts of precipitation occur in all seasons in most areas. Winter rainfall (and sometimes snowfall) is associated with large storms that the westerlies steer from west to east. Most summer rainfall occurs during thunderstorms.

Runways

Designator Length Width Surface Rops
18/36 3500 60 PEM Yes/Yes
Airport map: 
Aerial View: 

SKYbrary Partners:

Safety knowledge contributed by: